THORAD DELTA 1 DEB, 8154

Orbit data source: Space-Track

THORAD DELTA 1 DEB, 8154 is space debris in SSO originally from a launch on Fri, 15 Nov 1974 UTC launched from the Air Force Western Test Range (AFWTR). Debris objects in space refer to the collection of defunct objects orbiting the Earth. Examples of debris include non-operational satellites, rocket bodies, and fragments generated from explosions, collisions, or faulty payload assembly.

Loading next visibility...
Identifier
8154, 1974-089U
Orbit
SSO
Country
Flag of USUS
Related business
Manufacturer
Unknown
Mission
Spacecraft
Bus & Motor
Unknown
Mass
Unknown
Launch date (UTC)
1974-11-15 (51 years ago)
Launch vehicle
Unknown
Launch site
Air Force Western Test Range (AFWTR)
Object type
Payload
Rocket body
Debris
Shape & HBR
Unknown shape, 0.2 m
Radar Cross Section
Small (<0.1 m²)

Expand to show TLE details & history
Last TLE update: 18 hours ago

TLE from 18 hours ago
0 THORAD DELTA 1 DEB
1 08154U 74089U   26072.49060763 -.00000025  00000-0  13601-3 0  9990
2 08154 102.0720  78.3687 0005864 132.9664  20.8766 12.52430983346161
Epoch: 2026-03-13T11:46Z
TLE epoch observation values (Epoch: 2026-03-13T11:46:28.499Z)
Latitude
25.54431°
Longitude
-83.53771°
Altitude
1,452.839 km
Speed
7.14 km/s
True Right ascension
17h 36m 49s
True Declination
25° 25' 21"
Sunlit
Object was in daylight at epoch
Visualization orbit readout
Latitude
Unknown
Longitude
Unknown
Altitude
Unknown
Speed
Unknown
Apparent Right ascension
Unknown
Apparent Declination
Unknown
Sunlit
N/A
Visualization observer readout
Local Sidereal Time
10:22:09
Azimuth
Unknown
Elevation
Unknown
Doppler factor
Unknown
Orbital elements
Apogee altitude
1,456.498 km
Perigee altitude
1,447.314 km
Semi-major axis
7,830.043 km
Eccentricity
0.00059
Inclination
102.072°
RAAN
78.3687°
Arg. of periapsis
132.9664°
True anomaly
20.90056°
Mean anomaly
20.8766°
Eccentric anomaly
20.88858°
Mean motion
3.13254 °/min
Orbital period
114.92 mins
BSTAR
0.00013601
Loading maneuver chart data...
Computing Atmospheric mass density...

Documentation

Showing up to 5 results
|